Flag for U.S.A. Weather past 2 weeks in Pensacola, Florida, U.S.A.

Now
73 °F

Partly cloudy.


Feels Like: 71 °F
Forecast: 75 / 83 °F
Wind: 9 mph from Northeast

Location: Pensacola Regional Airport

Current Time: May 25, 2015 at 9:41:24 PM

Latest Report: May 25, 2015 at 8:53 PM


Visibility: 10 mi

Pressure: 30.11 "Hg

Humidity: 90%

Dew point: 70 °F

Location of PensacolaLocation

Historic Weather in Pensacola — Graph

°F

Pensacola temperature yesterday

Maximum temperature yesterday: 84 °F (at 2:53 PM)
Minimum temperature yesterday: 74 °F (at 6:58 AM)
Average temperature yesterday: 79 °F

Past Weeks' High & Low Weather Summary

 TemperatureHumidityPressure
High88 °F (May 13, 2:53 PM)100% (May 18, 3:53 AM)30.26 "Hg (May 18, 3:53 AM)
Low63 °F (May 22, 6:53 AM)41% (May 22, 1:53 PM)29.94 "Hg (May 20, 4:53 PM)
Average78 °F78%30.12 "Hg
* Reported May 10 7:53 PM — May 25 7:53 PM, Pensacola, Weather by CustomWeather, © 2015

Note: Actual official high and low records may vary slightly from our data, if they occured in-between our weather recording intervals... More about our weather records

Advertising

Pensacola weather history for previous 24 hours

 ConditionsComfort  
Time TempWeatherWind HumidityBarometerVisibility
7:53 PM
Mon, May 25
75 °FMostly cloudy.9 mph88%30.11 "Hg10 mi
6:53 PM79 °FBroken clouds.14 mph88%30.10 "Hg10 mi
5:53 PM80 °FPartly sunny.13 mph85%30.11 "Hg10 mi
4:53 PM80 °FPartly sunny.13 mph85%30.11 "Hg10 mi
4:02 PM81 °FPartly sunny.13 mph82%30.11 "Hg10 mi
3:53 PM81 °FBroken clouds.13 mph85%30.11 "Hg10 mi
2:53 PM82 °FBroken clouds.14 mph82%30.11 "Hg10 mi
1:53 PM81 °FScattered clouds.12 mph85%30.13 "Hg10 mi
1:00 PM81 °FPassing clouds.14 mph85%30.14 "Hg10 mi
11:53 AM79 °FPartly sunny.15 mph90%30.14 "Hg10 mi
11:00 AM77 °FBroken clouds.10 mph90%30.14 "Hg10 mi
10:00 AM78 °FThunderstorms. Mostly cloudy.16 mph90%30.14 "Hg10 mi
9:00 AM80 °FBroken clouds.13 mph85%30.14 "Hg10 mi
8:00 AM79 °FPartly sunny.15 mph88%30.13 "Hg10 mi
7:02 AM78 °FPartly sunny.14 mph90%30.12 "Hg10 mi
5:53 AM78 °FPartly sunny.12 mph87%30.11 "Hg10 mi
5:02 AM78 °FPartly cloudy.15 mph87%30.10 "Hg10 mi
4:53 AM78 °FPassing clouds.13 mph87%30.09 "Hg10 mi
3:53 AM78 °FMostly cloudy.14 mph87%30.09 "Hg10 mi
3:04 AM77 °FPassing clouds.12 mph88%30.09 "Hg10 mi
1:53 AM77 °FPassing clouds.12 mph88%30.10 "Hg10 mi
1:04 AM77 °FPassing clouds.16 mph88%30.11 "Hg10 mi
12:53 AM77 °FPassing clouds.12 mph88%30.12 "Hg10 mi
11:53 PM
Sun, May 24
77 °FPassing clouds.14 mph88%30.13 "Hg10 mi
10:53 PM78 °FPassing clouds.13 mph84%30.14 "Hg10 mi
9:53 PM78 °FOvercast.15 mph84%30.13 "Hg10 mi
Weather by CustomWeather, © 2015

See weather overviewHow to use our weather pages